Overview Statistics Trail Chart Weather Telemetry Raw packets
 

This is the latest recevied weather packets stored in our database for station/object VE8SKI. If no packets are shown the sender has not sent any weather packets the latest 10 day(s).

<< 80 81 82 83 84 85 86 >>
Time Temp. Humidity Pressure Rain* Wind** Luminosity Snow
1777520153 6.67° C 56% 1015.1 hPa 0 mm 0 m/s - -
1777519854 7.22° C 55% 1015 hPa 0 mm 0 m/s - -
1777519554 7.22° C 54% 1014.9 hPa 0 mm 0 m/s - -
1777519252 7.78° C 54% 1014.8 hPa 0 mm 0 m/s - -
1777518953 7.78° C 54% 1014.7 hPa 0 mm 0 m/s - -
1777518653 8.33° C 53% 1014.7 hPa 0 mm 0 m/s - -
1777518354 8.33° C 53% 1014.5 hPa 0 mm 0 m/s - -
1777518054 8.89° C 52% 1014.3 hPa 0 mm 0 m/s - -
1777517755 9.44° C 50% 1014.3 hPa 0 mm 0.89 m/s, 165° - -
1777517452 10° C 49% 1014.3 hPa 0 mm 0.89 m/s, 169° - -
1777517153 10° C 49% 1014.3 hPa 0 mm 0.89 m/s, 117° - -
1777516853 10.56° C 48% 1014.2 hPa 0 mm 1.34 m/s, 139° - -
1777516554 10.56° C 48% 1014.1 hPa 0 mm 0 m/s - -
1777516254 11.11° C 48% 1014 hPa 0 mm 0 m/s - -
1777515955 10.56° C 48% 1014 hPa 0 mm 0 m/s - -
1777515653 10.56° C 48% 1013.9 hPa 0 mm 0.89 m/s, 120° - -
1777515353 10° C 49% 1014 hPa 0 mm 0.89 m/s, 153° - -
1777515054 10.56° C 49% 1013.9 hPa 0 mm 1.34 m/s, 169° - -
1777514754 11.11° C 47% 1014 hPa 0 mm 1.34 m/s, 107° - -
1777514455 11.11° C 47% 1014.1 hPa 0 mm 0.45 m/s, 142° - -
1777514155 11.11° C 47% 1014.1 hPa 0 mm 0.45 m/s, 183° - -
1777513853 11.11° C 46% 1014.3 hPa 0 mm 0.45 m/s, 125° - -
1777513554 11.67° C 46% 1014.3 hPa 0 mm 0.89 m/s, 107° - -
1777513254 11.11° C 47% 1014.3 hPa 0 mm 0.45 m/s, 115° - -
1777512955 11.11° C 47% 1014.2 hPa 0 mm 0.45 m/s, 211° - -

* Rain latest hour (hover to see other rain measurements)
** Current wind speed in m/s (hover to see current wind gust speed)